Terminal Aerodrome Forecast
Issued by NWS Cleveland, OH

Home | Current Version | Previous Version | Text Only | Print | Product List | Glossary On
Versions: 1 2 3 4 5 6 7 8 9 10 11 12 13 14 15 16 17 18 19 20 21 22 23 24 25 26
000
FTUS41 KCLE 021000 AAC
TAFCAK
TAF AMD
KCAK 021028Z 0210/0306 23006KT 5SM BR BKN025
      TEMPO 0210/0213 6SM BR BKN004
     FM021300 24009KT 4SM -SHRA BR VCTS SCT015CB BKN025
      TEMPO 0213/0217 2SM -SHRA BR BKN015
     FM021700 24011KT P6SM VCSH BKN015
     FM022100 24010KT P6SM BKN035
     FM030000 24008KT P6SM SCT045 BKN250
     FM030300 21005KT P6SM SCT050 BKN250=

USA.gov is the U.S. government's official web portal to all federal, state and local government web resources and services.